UAL1860 KRDU-KFLL

Flight info

Callsign UAL1860
Flight time N/A
Altitude 34000
Route ROZBO5 ROZBO GARIC JRDAN Y291 MAJIK CUUDA3
Aircraft A321/M-SDE3FGHIRWY/LB1

Departure

Time 2026-05-03 21:37
Airport Raleigh-Durham International Airport (KRDU)

Arrival

Time N/A
Airport Fort Lauderdale Hollywood International Airport (KFLL)
Time Latitude Longitude Altitude Speed Heading
2026-05-03 21:11 35.87565 -78.79662 382 ft 0 kts 134°
2026-05-03 21:25 35.87570 -78.79668 381 ft 1 kts 134°
2026-05-03 21:25 35.87577 -78.79678 381 ft 2 kts 125°
2026-05-03 21:25 35.87584 -78.79694 380 ft 2 kts 103°
2026-05-03 21:26 35.87585 -78.79713 379 ft 2 kts 84°
2026-05-03 21:26 35.87582 -78.79731 379 ft 2 kts 65°
2026-05-03 21:26 35.87574 -78.79745 378 ft 0 kts 47°
2026-05-03 21:26 35.87569 -78.79751 378 ft 1 kts 43°
2026-05-03 21:27 35.87569 -78.79752 378 ft 0 kts 44°
2026-05-03 21:29 35.87573 -78.79747 378 ft 2 kts 44°
2026-05-03 21:29 35.87589 -78.79728 379 ft 5 kts 44°
2026-05-03 21:29 35.87624 -78.79684 380 ft 7 kts 45°
2026-05-03 21:30 35.87669 -78.79628 381 ft 10 kts 45°
2026-05-03 21:30 35.87722 -78.79563 382 ft 10 kts 45°
2026-05-03 21:30 35.87773 -78.79500 384 ft 10 kts 45°
2026-05-03 21:30 35.87821 -78.79440 386 ft 11 kts 45°
2026-05-03 21:31 35.87883 -78.79364 387 ft 12 kts 45°
2026-05-03 21:31 35.87946 -78.79286 389 ft 13 kts 45°
2026-05-03 21:31 35.88013 -78.79203 391 ft 13 kts 45°
2026-05-03 21:31 35.88079 -78.79121 393 ft 13 kts 45°
2026-05-03 21:32 35.88150 -78.79033 395 ft 14 kts 45°
2026-05-03 21:32 35.88218 -78.78949 398 ft 13 kts 45°
2026-05-03 21:32 35.88280 -78.78873 400 ft 13 kts 45°
2026-05-03 21:32 35.88363 -78.78770 401 ft 19 kts 45°
2026-05-03 21:33 35.88456 -78.78654 401 ft 19 kts 45°
2026-05-03 21:33 35.88548 -78.78540 403 ft 18 kts 45°
2026-05-03 21:33 35.88643 -78.78423 402 ft 19 kts 45°
2026-05-03 21:33 35.88741 -78.78303 399 ft 20 kts 45°
2026-05-03 21:34 35.88845 -78.78174 399 ft 21 kts 45°
2026-05-03 21:34 35.88948 -78.78043 398 ft 21 kts 48°
2026-05-03 21:34 35.89014 -78.77894 401 ft 18 kts 50°
2026-05-03 21:34 35.89095 -78.77786 402 ft 14 kts 45°
2026-05-03 21:35 35.89146 -78.77721 404 ft 7 kts 45°
2026-05-03 21:35 35.89181 -78.77681 405 ft 6 kts 36°
2026-05-03 21:35 35.89231 -78.77665 404 ft 8 kts 345°
2026-05-03 21:35 35.89274 -78.77699 403 ft 2 kts 317°
2026-05-03 21:36 35.89289 -78.77716 403 ft 3 kts 316°
2026-05-03 21:36 35.89310 -78.77742 403 ft 6 kts 316°
2026-05-03 21:36 35.89351 -78.77806 402 ft 11 kts 289°
2026-05-03 21:36 35.89319 -78.77882 400 ft 13 kts 224°
2026-05-03 21:37 35.89107 -78.78144 392 ft 77 kts 225°
2026-05-03 21:37 35.88584 -78.78788 395 ft 135 kts 225°
2026-05-03 21:37 35.87803 -78.79758 498 ft 173 kts 225°
2026-05-03 21:37 35.86953 -78.80801 1097 ft 175 kts 225°
2026-05-03 21:38 35.86100 -78.81853 1803 ft 174 kts 225°
2026-05-03 21:38 35.85251 -78.82886 2383 ft 176 kts 225°
2026-05-03 21:38 35.84296 -78.83929 2699 ft 193 kts 212°
2026-05-03 21:38 35.82919 -78.84236 2998 ft 215 kts 177°
2026-05-03 21:39 35.81388 -78.83853 3345 ft 236 kts 169°
2026-05-03 21:39 35.79739 -78.83343 3736 ft 254 kts 169°
2026-05-03 21:39 35.77993 -78.82823 4326 ft 263 kts 170°
2026-05-03 21:39 35.76219 -78.82331 5093 ft 264 kts 171°
2026-05-03 21:40 35.74416 -78.81852 5834 ft 266 kts 172°
2026-05-03 21:40 35.72615 -78.81388 6522 ft 270 kts 173°
2026-05-03 21:40 35.70775 -78.80926 7217 ft 273 kts 173°
2026-05-03 21:40 35.68893 -78.80459 7917 ft 275 kts 173°
2026-05-03 21:41 35.67021 -78.79998 8605 ft 277 kts 173°
2026-05-03 21:41 35.65126 -78.79534 9259 ft 280 kts 174°
2026-05-03 21:41 35.63204 -78.79063 9914 ft 283 kts 174°
2026-05-03 21:41 35.61262 -78.78591 10472 ft 289 kts 174°
2026-05-03 21:42 35.59240 -78.78104 10753 ft 304 kts 174°
2026-05-03 21:42 35.57138 -78.77600 11029 ft 319 kts 174°
2026-05-03 21:42 35.54919 -78.77065 11344 ft 333 kts 174°
2026-05-03 21:42 35.52624 -78.76506 11917 ft 337 kts 174°
2026-05-03 21:43 35.50305 -78.75938 12582 ft 338 kts 174°
2026-05-03 21:43 35.48001 -78.75376 13188 ft 341 kts 174°
2026-05-03 21:43 35.45685 -78.74813 13771 ft 343 kts 174°
2026-05-03 21:43 35.43335 -78.74242 14348 ft 345 kts 174°
2026-05-03 21:44 35.40955 -78.73665 14915 ft 348 kts 174°
2026-05-03 21:44 35.38574 -78.73088 15468 ft 350 kts 174°
2026-05-03 21:44 35.36167 -78.72505 16010 ft 352 kts 174°
2026-05-03 21:44 35.33783 -78.71928 16533 ft 354 kts 174°
2026-05-03 21:45 35.31352 -78.71341 17050 ft 356 kts 174°
2026-05-03 21:45 35.28928 -78.70755 17546 ft 359 kts 174°
2026-05-03 21:45 35.26476 -78.70163 18035 ft 361 kts 174°
2026-05-03 21:45 35.24016 -78.69569 18513 ft 363 kts 175°
2026-05-03 21:46 35.21562 -78.68977 18978 ft 365 kts 175°
2026-05-03 21:46 35.19072 -78.68375 19439 ft 367 kts 175°
2026-05-03 21:46 35.16559 -78.67770 19882 ft 369 kts 175°
2026-05-03 21:46 35.14053 -78.67165 20317 ft 371 kts 175°
2026-05-03 21:47 35.11517 -78.66554 20742 ft 373 kts 175°
2026-05-03 21:47 35.08962 -78.65938 21163 ft 375 kts 175°